Location: Joffre
(52.3362°N, 113.5373°W)
Time: 13:58:41
(UTC+00:00)

Envisat - Pass Details

Date: 30 November 2021
Orbit: 764 x 766 km, 98.2° (Epoch: 28 January)

Event Time Altitude Azimuth Distance (km) Brightness Sun altitude
Rises 12:59:09 0° 13° (NNE) 3,248 6.3 -20.6°
Reaches altitude 10° 13:01:28 10° 13° (NNE) 2,318 5.5 -20.3°
Maximum altitude 13:06:34 80° 287° (WNW) 785 2.9 -19.5°
Drops below altitude 10° 13:11:39 10° 201° (SSW) 2,300 5.4 -18.7°
Sets 13:13:56 0° 201° (SSW) 3,222 6.1 -18.4°
